Miscellaneous Local Product
Issued by NWS North Platte, NE

Home | Current Version | Previous Version | Text Only | Print | Product List | Glossary On
Versions: 1 2 3 4 5 6 7 8 9 10 11 12 13 14 15 16 17 18 19 20 21 22 23 24 25 26 27 28 29 30 31 32 33 34 35 36 37 38 39 40 41 42 43 44 45 46 47 48 49 50
351
AXUS43 KLBF 081110
MISLBF


WESTERN AND NORTH CENTRAL NEBRASKA HOURLY WEATHER ROUNDUP
NATIONAL WEATHER SERVICE NORTH PLATTE NE
500 AM CST THU DEC 08 2016

NOTE: "FAIR" INDICATES FEW OR NO CLOUDS BELOW 12,000 FEET WITH NO
SIGNIFICANT WEATHER AND/OR OBSTRUCTIONS TO VISIBILITY.

NOTE: STATIONS NOT REPORTING VARIABLES SUCH AS SKY/WEATHER OR
PRESSURE ARE PROVIDED BY RAWS AND APRS NETWORKS AND ARE NOT UNDER
NATIONAL WEATHER SERVICE QUALITY CONTROL.

...OBSERVATIONS IN AND NEAR THE EASTERN PANHANDLE OF NEBRASKA...

CITY           SKY/WX    TMP DP  RH WIND       PRES   REMARKS
PINE RIDGE     CLOUDY   -16 -19  87 E5        30.53S WCI -29
CHADRON        CLEAR     -2  -9  72 SW6       30.55R WCI -14
ALLIANCE       CLEAR    -10 -15  78 W8        30.47S WCI -26
SIDNEY         CLOUDY    -6 -12  75 W12       30.47S WCI -25
CRESCENT LAKE    N/A     -6 -11  78 W8          N/A  WCI -21
$$

...OBSERVATIONS IN NORTHERN NEBRASKA AND FAR SOUTHERN SOUTH DAKOTA...

CITY           SKY/WX    TMP DP  RH WIND       PRES   REMARKS
WINNER         CLOUDY     8  -1  66 NW18G29   30.56R WCI -11
VALENTINE      MOCLDY     5  -5  63 NW14      30.54S WCI -12
THEDFORD       CLEAR      4  -3  75 NW12      30.53R WCI -13
AINSWORTH      MOCLDY     5  -2  74 NW13G18   30.52R WCI -12
O`NEILL        CLEAR      7   0  72 NW16G25   30.52R WCI -11
ORD            CLEAR      7  -3  64 NW16      30.54R WCI -11
BROKEN BOW     CLEAR      6  -2  69 NW24G30   30.53R WCI -16
VALENTINE NWR    N/A      3  -5  68 NW13G22     N/A  WCI -14
BUTTE            N/A      6   1  78 NW21G33     N/A  WCI -14
HALSEY           N/A      4  -6  64 NW9G18      N/A  WCI -10
CHAMBERS         N/A      5 -10  50 N6          N/A  WCI  -6
EWING            N/A      7   1  75 NW12G18     N/A  WCI  -8
$$

...OBSERVATIONS IN SOUTHWEST NEBRASKA AND FAR NORTHEAST COLORADO...

CITY           SKY/WX    TMP DP  RH WIND       PRES   REMARKS
WRAY           FAIR      -6 -11  77 NW7       30.52S WCI -20
HOLYOKE        FAIR       1  -6  71 NW9       30.51F WCI -14
IMPERIAL       CLEAR      0  -8  69 NW10      30.54R WCI -16
OGALLALA       CLEAR      3  -5  70 NW10      30.54S WCI -13
NORTH PLATTE   CLEAR      1  -5  75 NW8       30.56S WCI -13
MCCOOK         CLEAR     -1  -7  75 W9        30.59R WCI -16
LEXINGTON      CLEAR      6  -1  73 W13       30.57R WCI -10
STAPLETON        N/A      1  -4  78 CALM        N/A
GOTHENBURG       N/A      5  -1  75 W7          N/A  WCI  -7
CALLAWAY         N/A      4  -2  74 NW20        N/A  WCI -16
$$

...OBSERVATIONS IN CENTRAL LINCOLN COUNTY AREA...

CITY           SKY/WX    TMP DP  RH WIND       PRES   REMARKS
N.P. AIRPORT   CLEAR      1  -5  75 NW8       30.56S WCI -13
N.P. DOWNTOWN    N/A      1  -4  78 CALM        N/A
N.P. SOUTHEAST   N/A      0  -5  77 CALM        N/A
N.P. HILLCREST   N/A     -1  -5  84 NW6         N/A  WCI -13
$$

...SOME OBSERVATIONS FROM AROUND THE REGION...

CITY           SKY/WX    TMP DP  RH WIND       PRES   REMARKS
LARAMIE        CLOUDY   -21 -26  77 SW5       30.19F WCI -34
CHEYENNE       CLOUDY   -14 -19  79 W8        30.30F WCI -31
DENVER         CLOUDY    -7 -11  83 S8        30.36F WCI -23
AKRON          CLOUDY    -9 -14  78 W12       30.43F WCI -28
SCOTTSBLUFF    CLOUDY    -8 -13  78 NW8       30.51S WCI -24
RAPID CITY     CLEAR     -3  -9  75 NW8       30.52S WCI -18
BISMARCK       CLOUDY     4  -1  80 NW21G29   30.55S WCI -17
PIERRE         CLOUDY     7   1  76 NW25      30.55S WCI -15
SIOUX FALLS    CLEAR      8   3  80 NW21G31   30.42R WCI -12
OMAHA          PTCLDY    12   4  70 NW20      30.52R WCI  -6
GRAND ISLAND   CLEAR      9   0  67 NW16      30.55S WCI  -8
KANSAS CITY    CLEAR     16   5  62 NW12G21   30.51R WCI   3
WICHITA        CLEAR     18   7  62 N14       30.60S WCI   4
OKLAHOMA CITY  MOCLDY    23  16  74 N14       30.60R WCI  11
DALLAS         CLOUDY    35  25  66 N23G29    30.47R WCI  23
AMARILLO       CLOUDY    17  11  77 N17       30.52R WCI   1
DODGE CITY     CLEAR      3  -1  83 NW8       30.58S WCI -10
GOODLAND       CLOUDY    -4 -10  75 W12       30.52S WCI -22
$$




USA.gov is the U.S. government's official web portal to all federal, state and local government web resources and services.